Time,TemperatureF,DewpointF,PressureIn,WindDirection,WindDirectionDegrees,WindSpeedMPH,WindSpeedGustMPH,Humidity,HourlyPrecipIn,Conditions,Clouds,dailyrainin,SoftwareType,DateUTC
2013-03-08 00:10:00,29.1,19.0,30.39,NW,324,1.0,-999.0,67,-99.99,,,0.00,weatherlink.com 1.10,2013-03-08 05:10:00,
2013-03-08 00:25:00,28.8,19.0,30.39,SSE,159,0.0,-999.0,68,-99.99,,,0.00,weatherlink.com 1.10,2013-03-08 05:25:00,
2013-03-08 00:40:00,28.6,19.0,30.38,ESE,119,3.0,-999.0,68,-99.99,,,0.00,weatherlink.com 1.10,2013-03-08 05:40:00,
2013-03-08 00:55:00,28.8,19.0,30.38,ENE,77,0.0,-999.0,68,-99.99,,,0.00,weatherlink.com 1.10,2013-03-08 05:55:00,
2013-03-08 01:10:00,28.9,20.0,30.37,ENE,77,0.0,-999.0,68,-99.99,,,0.00,weatherlink.com 1.10,2013-03-08 06:10:00,
2013-03-08 01:26:00,29.0,20.0,30.37,ENE,61,2.0,-999.0,70,-99.99,,,0.00,weatherlink.com 1.10,2013-03-08 06:26:00,
2013-03-08 01:41:00,29.1,20.0,30.36,ENE,60,0.0,-999.0,68,-99.99,,,0.00,weatherlink.com 1.10,2013-03-08 06:41:00,
2013-03-08 01:56:00,29.2,20.0,30.38,ENE,60,0.0,-999.0,69,-99.99,,,0.00,weatherlink.com 1.10,2013-03-08 06:56:00,
2013-03-08 02:11:00,29.2,19.0,30.37,ENE,60,0.0,-999.0,66,-99.99,,,0.00,weatherlink.com 1.10,2013-03-08 07:11:00,
2013-03-08 02:26:00,29.5,19.0,30.37,ENE,69,0.0,-999.0,65,-99.99,,,0.00,weatherlink.com 1.10,2013-03-08 07:26:00,
2013-03-08 02:41:00,29.5,19.0,30.37,SSW,194,0.0,-999.0,64,-99.99,,,0.00,weatherlink.com 1.10,2013-03-08 07:41:00,
2013-03-08 02:56:00,29.3,19.0,30.37,SSW,194,0.0,-999.0,65,-99.99,,,0.00,weatherlink.com 1.10,2013-03-08 07:56:00,
2013-03-08 03:11:00,28.9,19.0,30.36,SSW,194,0.0,-999.0,66,-99.99,,,0.00,weatherlink.com 1.10,2013-03-08 08:11:00,
2013-03-08 03:26:00,28.1,18.0,30.35,SSW,194,0.0,-999.0,67,-99.99,,,0.00,weatherlink.com 1.10,2013-03-08 08:26:00,
2013-03-08 03:41:00,27.9,19.0,30.36,SSW,194,0.0,-999.0,68,-99.99,,,0.00,weatherlink.com 1.10,2013-03-08 08:41:00,
2013-03-08 03:56:00,27.6,18.0,30.36,SSW,194,0.0,-999.0,68,-99.99,,,0.00,weatherlink.com 1.10,2013-03-08 08:56:00,
2013-03-08 04:12:00,27.3,18.0,30.36,SSW,194,0.0,-999.0,69,-99.99,,,0.00,weatherlink.com 1.10,2013-03-08 09:12:00,
2013-03-08 04:27:00,27.2,19.0,30.36,SSW,197,1.0,-999.0,70,-99.99,,,0.00,weatherlink.com 1.10,2013-03-08 09:27:00,
2013-03-08 04:42:00,26.9,18.0,30.37,SSW,196,0.0,-999.0,70,-99.99,,,0.00,weatherlink.com 1.10,2013-03-08 09:42:00,
2013-03-08 04:57:00,26.6,18.0,30.38,SSW,196,0.0,-999.0,70,-99.99,,,0.00,weatherlink.com 1.10,2013-03-08 09:57:00,
2013-03-08 05:12:00,26.3,18.0,30.38,SSW,196,0.0,-999.0,72,-99.99,,,0.00,weatherlink.com 1.10,2013-03-08 10:12:00,
2013-03-08 05:27:00,26.1,19.0,30.38,SSW,196,0.0,-999.0,73,-99.99,,,0.00,weatherlink.com 1.10,2013-03-08 10:27:00,
2013-03-08 05:42:00,26.0,18.0,30.39,SSW,196,0.0,-999.0,73,-99.99,,,0.00,weatherlink.com 1.10,2013-03-08 10:42:00,
2013-03-08 05:57:00,25.6,18.0,30.39,ESE,109,0.0,-999.0,74,-99.99,,,0.00,weatherlink.com 1.10,2013-03-08 10:57:00,
2013-03-08 06:12:00,25.5,19.0,30.39,ESE,109,0.0,-999.0,75,-99.99,,,0.00,weatherlink.com 1.10,2013-03-08 11:12:00,
2013-03-08 06:27:00,25.4,19.0,30.40,ESE,109,0.0,-999.0,75,-99.99,,,0.00,weatherlink.com 1.10,2013-03-08 11:27:00,
2013-03-08 06:42:00,25.2,18.0,30.40,ESE,109,0.0,-999.0,75,-99.99,,,0.00,weatherlink.com 1.10,2013-03-08 11:42:00,
2013-03-08 06:57:00,25.1,19.0,30.40,ESE,109,0.0,-999.0,76,-99.99,,,0.00,weatherlink.com 1.10,2013-03-08 11:57:00,
2013-03-08 07:13:00,24.9,18.0,30.40,ESE,109,0.0,-999.0,76,-99.99,,,0.00,weatherlink.com 1.10,2013-03-08 12:13:00,
2013-03-08 07:28:00,24.9,19.0,30.40,ESE,109,0.0,-999.0,77,-99.99,,,0.00,weatherlink.com 1.10,2013-03-08 12:28:00,
2013-03-08 07:43:00,25.3,19.0,30.41,ESE,109,0.0,-999.0,78,-99.99,,,0.00,weatherlink.com 1.10,2013-03-08 12:43:00,
2013-03-08 07:58:00,26.4,21.0,30.42,ESE,109,0.0,-999.0,80,-99.99,,,0.00,weatherlink.com 1.10,2013-03-08 12:58:00,
2013-03-08 08:13:00,27.2,22.0,30.43,WNW,303,0.0,-999.0,80,-99.99,,,0.00,weatherlink.com 1.10,2013-03-08 13:13:00,
2013-03-08 08:28:00,28.2,22.0,30.43,WNW,300,0.0,-999.0,78,-99.99,,,0.00,weatherlink.com 1.10,2013-03-08 13:28:00,
2013-03-08 08:43:00,30.0,22.0,30.43,NNE,22,1.0,-999.0,73,-99.99,,,0.00,weatherlink.com 1.10,2013-03-08 13:43:00,
2013-03-08 08:58:00,32.6,22.0,30.44,NNE,24,0.0,-999.0,66,-99.99,,,0.00,weatherlink.com 1.10,2013-03-08 13:58:00,
2013-03-08 09:14:00,35.0,21.0,30.43,ENE,63,4.0,-999.0,58,-99.99,,,0.00,weatherlink.com 1.10,2013-03-08 14:14:00,
2013-03-08 09:29:00,36.5,21.0,30.43,NNE,15,1.0,-999.0,54,-99.99,,,0.00,weatherlink.com 1.10,2013-03-08 14:29:00,
2013-03-08 09:44:00,37.8,21.0,30.43,NNW,338,3.0,-999.0,52,-99.99,,,0.00,weatherlink.com 1.10,2013-03-08 14:44:00,
2013-03-08 09:59:00,39.0,22.0,30.44,NE,47,5.0,-999.0,50,-99.99,,,0.00,weatherlink.com 1.10,2013-03-08 14:59:00,
2013-03-08 10:14:00,39.7,20.0,30.43,WNW,303,4.0,-999.0,46,-99.99,,,0.00,weatherlink.com 1.10,2013-03-08 15:14:00,
2013-03-08 10:29:00,40.6,20.0,30.43,WNW,303,3.0,-999.0,44,-99.99,,,0.00,weatherlink.com 1.10,2013-03-08 15:29:00,
2013-03-08 10:44:00,41.8,21.0,30.43,NW,314,3.0,-999.0,43,-99.99,,,0.00,weatherlink.com 1.10,2013-03-08 15:44:00,
2013-03-08 10:59:00,42.6,21.0,30.42,North,354,2.0,-999.0,42,-99.99,,,0.00,weatherlink.com 1.10,2013-03-08 15:59:00,
2013-03-08 11:15:00,43.6,21.0,30.43,North,5,0.0,-999.0,40,-99.99,,,0.00,weatherlink.com 1.10,2013-03-08 16:15:00,
2013-03-08 11:30:00,44.5,21.0,30.42,ENE,61,0.0,-999.0,39,-99.99,,,0.00,weatherlink.com 1.10,2013-03-08 16:30:00,
2013-03-08 11:45:00,46.0,20.0,30.42,North,11,5.0,-999.0,35,-99.99,,,0.00,weatherlink.com 1.10,2013-03-08 16:45:00,
2013-03-08 12:00:00,46.9,19.0,30.42,NNW,348,3.0,-999.0,33,-99.99,,,0.00,weatherlink.com 1.10,2013-03-08 17:00:00,
2013-03-08 12:15:00,47.0,18.0,30.40,NW,308,2.0,-999.0,32,-99.99,,,0.00,weatherlink.com 1.10,2013-03-08 17:15:00,
2013-03-08 12:30:00,47.6,17.0,30.39,NNW,343,4.0,-999.0,30,-99.99,,,0.00,weatherlink.com 1.10,2013-03-08 17:30:00,
2013-03-08 12:45:00,48.2,17.0,30.38,WNW,298,3.0,-999.0,29,-99.99,,,0.00,weatherlink.com 1.10,2013-03-08 17:45:00,
2013-03-08 13:00:00,48.7,18.0,30.37,East,81,2.0,-999.0,30,-99.99,,,0.00,weatherlink.com 1.10,2013-03-08 18:00:00,
2013-03-08 13:15:00,49.9,15.0,30.36,WNW,300,3.0,-999.0,25,-99.99,,,0.00,weatherlink.com 1.10,2013-03-08 18:15:00,
2013-03-08 13:30:00,51.3,18.0,30.35,North,7,3.0,-999.0,27,-99.99,,,0.00,weatherlink.com 1.10,2013-03-08 18:30:00,
2013-03-08 13:46:00,51.7,17.0,30.34,NE,47,5.0,-999.0,25,-99.99,,,0.00,weatherlink.com 1.10,2013-03-08 18:46:00,
2013-03-08 14:01:00,51.5,18.0,30.33,WNW,292,10.0,-999.0,27,-99.99,,,0.00,weatherlink.com 1.10,2013-03-08 19:01:00,
2013-03-08 14:31:00,52.5,16.0,30.33,NE,42,2.0,-999.0,24,-99.99,,,0.00,weatherlink.com 1.10,2013-03-08 19:31:00,
2013-03-08 14:46:00,52.0,16.0,30.32,NNW,342,5.0,-999.0,24,-99.99,,,0.00,weatherlink.com 1.10,2013-03-08 19:46:00,
2013-03-08 15:01:00,53.1,18.0,30.32,North,3,2.0,-999.0,25,-99.99,,,0.00,weatherlink.com 1.10,2013-03-08 20:01:00,
2013-03-08 15:16:00,53.7,18.0,30.33,ENE,64,4.0,-999.0,24,-99.99,,,0.00,weatherlink.com 1.10,2013-03-08 20:16:00,
2013-03-08 15:31:00,54.1,17.0,30.33,NE,47,2.0,-999.0,23,-99.99,,,0.00,weatherlink.com 1.10,2013-03-08 20:31:00,
2013-03-08 15:46:00,54.2,18.0,30.33,NNE,17,4.0,-999.0,24,-99.99,,,0.00,weatherlink.com 1.10,2013-03-08 20:46:00,
2013-03-08 16:01:00,53.9,17.0,30.33,NNE,22,2.0,-999.0,23,-99.99,,,0.00,weatherlink.com 1.10,2013-03-08 21:01:00,
2013-03-08 16:16:00,53.8,17.0,30.33,NW,316,1.0,-999.0,23,-99.99,,,0.00,weatherlink.com 1.10,2013-03-08 21:16:00,
2013-03-08 16:32:00,53.9,18.0,30.33,NNE,22,1.0,-999.0,24,-99.99,,,0.00,weatherlink.com 1.10,2013-03-08 21:32:00,
2013-03-08 16:47:00,54.2,18.0,30.32,NW,319,6.0,-999.0,24,-99.99,,,0.00,weatherlink.com 1.10,2013-03-08 21:47:00,
2013-03-08 17:02:00,53.7,18.0,30.32,NW,322,4.0,-999.0,24,-99.99,,,0.00,weatherlink.com 1.10,2013-03-08 22:02:00,
2013-03-08 17:17:00,52.9,19.0,30.32,NW,313,4.0,-999.0,26,-99.99,,,0.00,weatherlink.com 1.10,2013-03-08 22:17:00,
2013-03-08 17:32:00,51.6,19.0,30.33,NE,42,4.0,-999.0,28,-99.99,,,0.00,weatherlink.com 1.10,2013-03-08 22:32:00,
2013-03-08 17:47:00,50.6,19.0,30.33,NNE,26,4.0,-999.0,29,-99.99,,,0.00,weatherlink.com 1.10,2013-03-08 22:47:00,
2013-03-08 18:02:00,49.4,20.0,30.34,NNE,31,2.0,-999.0,32,-99.99,,,0.00,weatherlink.com 1.10,2013-03-08 23:02:00,
2013-03-08 18:17:00,48.7,20.0,30.34,NE,43,2.0,-999.0,32,-99.99,,,0.00,weatherlink.com 1.10,2013-03-08 23:17:00,
2013-03-08 18:32:00,47.9,20.0,30.34,NNE,32,2.0,-999.0,33,-99.99,,,0.00,weatherlink.com 1.10,2013-03-08 23:32:00,
2013-03-08 18:47:00,46.7,20.0,30.34,NNE,32,0.0,-999.0,35,-99.99,,,0.00,weatherlink.com 1.10,2013-03-08 23:47:00,
2013-03-08 19:02:00,46.3,21.0,30.34,NNE,32,0.0,-999.0,36,-99.99,,,0.00,weatherlink.com 1.10,2013-03-09 00:02:00,
2013-03-08 19:17:00,44.6,21.0,30.34,NNE,21,0.0,-999.0,39,-99.99,,,0.00,weatherlink.com 1.10,2013-03-09 00:17:00,
2013-03-08 19:32:00,43.9,21.0,30.35,NNE,21,0.0,-999.0,41,-99.99,,,0.00,weatherlink.com 1.10,2013-03-09 00:32:00,
2013-03-08 19:48:00,43.4,22.0,30.37,NNE,21,0.0,-999.0,42,-99.99,,,0.00,weatherlink.com 1.10,2013-03-09 00:48:00,
2013-03-08 20:03:00,42.0,22.0,30.37,NNE,20,0.0,-999.0,46,-99.99,,,0.00,weatherlink.com 1.10,2013-03-09 01:03:00,
2013-03-08 20:18:00,41.2,24.0,30.37,NNE,21,1.0,-999.0,50,-99.99,,,0.00,weatherlink.com 1.10,2013-03-09 01:18:00,
2013-03-08 20:33:00,40.9,21.0,30.38,NNE,19,0.0,-999.0,46,-99.99,,,0.00,weatherlink.com 1.10,2013-03-09 01:33:00,
2013-03-08 20:48:00,40.9,21.0,30.39,NNE,19,0.0,-999.0,46,-99.99,,,0.00,weatherlink.com 1.10,2013-03-09 01:48:00,
2013-03-08 21:03:00,40.6,22.0,30.40,NNE,19,0.0,-999.0,47,-99.99,,,0.00,weatherlink.com 1.10,2013-03-09 02:03:00,
2013-03-08 21:18:00,40.2,22.0,30.40,NNE,19,0.0,-999.0,48,-99.99,,,0.00,weatherlink.com 1.10,2013-03-09 02:18:00,
2013-03-08 21:33:00,39.9,22.0,30.41,NNE,19,0.0,-999.0,50,-99.99,,,0.00,weatherlink.com 1.10,2013-03-09 02:33:00,
2013-03-08 21:48:00,39.4,24.0,30.41,NNE,19,0.0,-999.0,54,-99.99,,,0.00,weatherlink.com 1.10,2013-03-09 02:48:00,
2013-03-08 22:18:00,37.6,24.0,30.41,South,179,2.0,-999.0,58,-99.99,,,0.00,weatherlink.com 1.10,2013-03-09 03:18:00,
2013-03-08 22:33:00,37.1,22.0,30.41,SSE,159,1.0,-999.0,55,-99.99,,,0.00,weatherlink.com 1.10,2013-03-09 03:33:00,
2013-03-08 22:48:00,36.7,23.0,30.41,NE,49,0.0,-999.0,59,-99.99,,,0.00,weatherlink.com 1.10,2013-03-09 03:48:00,
2013-03-08 23:04:00,35.9,23.0,30.42,NE,49,0.0,-999.0,60,-99.99,,,0.00,weatherlink.com 1.10,2013-03-09 04:04:00,
2013-03-08 23:19:00,35.0,22.0,30.42,NE,53,1.0,-999.0,59,-99.99,,,0.00,weatherlink.com 1.10,2013-03-09 04:19:00,
2013-03-08 23:34:00,34.6,22.0,30.42,East,79,0.0,-999.0,61,-99.99,,,0.00,weatherlink.com 1.10,2013-03-09 04:34:00,
2013-03-08 23:49:00,33.9,22.0,30.42,East,79,0.0,-999.0,62,-99.99,,,0.00,weatherlink.com 1.10,2013-03-09 04:49:00,